This is the latest recevied weather packets stored in our database for station/object OK3MS-5. If no packets are shown the sender has not sent any weather packets the latest 10 day(s).
| Time | Temp. | Humidity | Pressure | Rain* | Wind** | Luminosity | Snow |
|---|---|---|---|---|---|---|---|
| 1787641205 | 18.33° C | 60% | 1011.2 hPa | 0 mm | - | 217 W/m² | - |
| 1787640903 | 18.33° C | 59% | 1011.2 hPa | 0 mm | - | 198 W/m² | - |
| 1787640604 | 18.33° C | 62% | 1011.2 hPa | 0 mm | - | 200 W/m² | - |
| 1787640303 | 17.78° C | 61% | 1011.2 hPa | 0 mm | - | 195 W/m² | - |
| 1787640003 | 17.78° C | 62% | 1011.3 hPa | 0 mm | - | 196 W/m² | - |
| 1787639704 | 17.78° C | 62% | 1011.1 hPa | 0 mm | - | 152 W/m² | - |
| 1787639404 | 17.78° C | 62% | 1011.3 hPa | 0 mm | - | 171 W/m² | - |
| 1787639104 | 17.22° C | 64% | 1011.5 hPa | 0 mm | - | 172 W/m² | - |
| 1787638803 | 17.22° C | 64% | 1011.6 hPa | 0 mm | - | 155 W/m² | - |
| 1787638503 | 16.67° C | 63% | 1011.7 hPa | 0 mm | - | 124 W/m² | - |
| 1787638203 | 16.67° C | 65% | 1011.9 hPa | 0 mm | - | 124 W/m² | - |
| 1787637906 | 16.67° C | 65% | 1012 hPa | 0 mm | - | 115 W/m² | - |
| 1787637604 | 16.11° C | 70% | 1012 hPa | 0 mm | - | 104 W/m² | - |
| 1787637304 | 16.11° C | 69% | 1012 hPa | 0 mm | - | 74 W/m² | - |
| 1787637004 | 15.56° C | 70% | 1012.2 hPa | 0 mm | - | 67 W/m² | - |
| 1787636703 | 15° C | 71% | 1012.3 hPa | 0 mm | - | 66 W/m² | - |
| 1787636404 | 14.44° C | 75% | 1012.6 hPa | 0 mm | - | 66 W/m² | - |
| 1787636105 | 14.44° C | 76% | 1012.9 hPa | 0 mm | - | 65 W/m² | - |
| 1787635803 | 13.89° C | 77% | 1013.1 hPa | 0 mm | - | 64 W/m² | - |
| 1787635503 | 13.89° C | 77% | 1013 hPa | 0 mm | - | 54 W/m² | - |
| 1787635203 | 13.33° C | 79% | 1012.9 hPa | 0 mm | - | 47 W/m² | - |
| 1787634905 | 13.89° C | 79% | 1012.9 hPa | 0 mm | - | 45 W/m² | - |
| 1787634605 | 13.33° C | 77% | 1012.8 hPa | 0 mm | - | 42 W/m² | - |
| 1787634304 | 13.33° C | 77% | 1012.8 hPa | 0 mm | - | 34 W/m² | - |
| 1787634004 | 13.89° C | 77% | 1012.6 hPa | 0 mm | - | 31 W/m² | - |
* Rain latest hour (hover to see other rain measurements)
** Current wind speed in m/s (hover to see current wind gust speed)